Location: Unspecified
(44.0704°N, 88.6889°W)
Time: 19:06:07
(UTC+02:00)

Altair - Pass Details

Date: 24 June 2019
Orbit: 1501 x 1683 km, 47.2° (Epoch: 17 July)

Event Time Altitude Azimuth Distance (km) Brightness Sun altitude
Rises 08:07:11 0° 290° (WNW) 4,810 10.3 -22.5°
Reaches altitude 10° 08:10:15 10° 290° (WNW) 3,847 9.8 -22.4°
Maximum altitude 08:20:09 83° 205° (SSW) 1,671 7.5 -22.3°
Drops below altitude 10° 08:30:19 10° 119° (ESE) 3,937 9.4 -22.1°
Sets 08:33:29 0° 119° (ESE) 4,928 10.0 -22.0°
